Location: Kerguen
(48.0707°N, 3.6343°W)
Time: 12:40:42
(UTC+00:00)

Daily predictions for brighter satellites

Satellite Brightness Start Highest point End
(mag) Time Altitude Azimuth Time Altitude Azimuth Time Altitude Azimuth
Cosmos 1844 Rocket 2.9 17:50:01 10° S 17:55:30 54° ESE 18:01:00 10° NE
SMAP 3.7 17:51:12 10° S 17:55:47 62° WSW 18:00:26 10° NNW
Unknown 3.7 17:51:51 10° SW 17:55:59 75° SSE 18:00:08 10° ENE
YAOGAN 1 3.2 17:52:26 10° SE 17:56:20 34° ENE 18:00:15 10° N
COBE Rocket 4.2 17:51:53 10° NNE 17:56:57 51° E 18:01:55 10° S
Unknown 3.6 17:53:31 10° SW 17:57:40 76° SSE 18:01:48 10° ENE
YAOGAN 6 3.2 17:55:02 10° SE 17:58:26 37° ENE 18:01:49 10° N
GP-B 4.3 17:54:16 10° N 17:58:33 47° W 18:02:48 10° SSW
Unknown 3.6 17:55:11 10° SW 17:59:19 78° SSE 18:03:28 10° ENE
H-2A R/B 4.1 17:59:44 10° NE 18:00:01 10° NE 18:00:17 10° NE
Unknown 3.6 17:56:50 10° WSW 18:00:58 80° SSE 18:05:08 10° ENE
SL-14 R/B 4.4 17:58:27 10° NNW 18:02:11 49° W 18:05:54 10° S
Lacrosse 5 rocket 1.3 17:58:48 10° NW 18:02:33 77° SW 18:06:28 10° SE
Cosmos 1939 Rocket 4.2 18:00:03 10° ESE 18:03:01 20° ENE 18:06:01 10° NNE
Unknown 3.6 18:00:08 10° WSW 18:04:17 83° SSE 18:08:27 10° ENE
Unknown 3.6 18:01:51 10° WSW 18:06:00 85° SSE 18:10:10 10° ENE
Unknown 3.6 18:03:30 10° WSW 18:07:39 86° SSE 18:11:49 10° ENE
Cosmos 1726 Rocket 3.7 18:04:51 10° S 18:09:06 51° E 18:13:21 10° NNE
Unknown 3.6 18:05:06 10° WSW 18:09:15 87° SSE 18:13:25 10° ENE
Unknown 3.6 18:05:36 10° WSW 18:09:44 89° SSE 18:13:55 10° ENE
ATLAS CENTAUR R/B 4.1 18:09:40 10° NNW 18:11:05 11° N 18:12:30 10° N
Unknown 3.6 18:08:16 10° WSW 18:12:25 87° SSE 18:16:28 11° ENE
Shenzhou-11 Module 3.5 18:11:06 10° SW 18:13:21 22° S 18:15:24 11° ESE
Cosmos 1470 3.5 18:09:36 10° SSW 18:13:32 60° WNW 18:17:29 10° N
Cosmos 2278 Rocket 3.4 18:10:33 10° SSE 18:14:36 20° E 18:18:41 10° NE
Meteor 1-21 Rocket 4.4 18:08:46 10° NNW 18:14:42 84° W 18:20:29 10° S
Cosmos 1328 4.2 18:11:50 10° N 18:15:37 39° ENE 18:19:21 10° SE
Unknown 3.6 18:11:38 10° WSW 18:15:47 90° NNW 18:19:43 11° ENE
CZ-4C R/B 3.7 18:09:10 10° NW 18:16:15 58° WSW 18:24:15 10° SSE
Unknown 3.6 18:13:14 10° WSW 18:17:24 88° NNW 18:21:15 12° ENE
Cosmos 1844 3.7 18:12:39 10° SSW 18:18:17 64° ESE 18:24:01 10° NNE
Cosmos 2228 3.0 18:14:07 10° S 18:18:28 67° E 18:22:48 10° NNE
Unknown 3.7 18:15:10 10° WSW 18:19:19 82° NNW 18:23:07 12° ENE
Okean-O 3.7 18:16:24 10° S 18:20:42 51° W 18:25:03 10° NNW
Unknown 3.6 18:16:34 10° WSW 18:20:43 85° NNW 18:24:27 13° ENE
Cosmos 2058 Rocket 3.3 18:17:35 10° SSE 18:21:44 45° E 18:25:54 10° NNE
Unknown 3.6 18:18:15 10° WSW 18:22:24 83° NNW 18:26:04 13° ENE
CZ-4 R/B 1.4 18:19:34 10° SSE 18:23:43 79° ENE 18:27:58 10° N
ATLAS 5 CENTAUR R/B 1.9 18:19:30 10° SW 18:23:46 68° NW 18:28:38 10° NE
Envisat 3.2 18:20:27 10° S 18:25:32 77° WSW 18:30:39 10° NNW
Unknown 3.7 18:21:35 10° WSW 18:25:44 81° NNW 18:29:16 14° ENE
CZ-4 R/B 4.4 18:21:57 10° SSE 18:26:04 87° ENE 18:30:12 10° NNW
Unknown 3.7 18:23:16 10° WSW 18:27:25 79° NNW 18:30:54 15° ENE
Unknown 3.7 18:24:57 10° WSW 18:29:05 78° NNW 18:32:29 15° ENE
Cosmos 921 Rocket 3.1 18:24:48 10° S 18:29:15 61° ESE 18:33:40 10° NNE
Unknown 3.7 18:26:37 10° WSW 18:30:46 76° NNW 18:34:06 15° ENE
Abrixas rocket 4.3 18:31:46 10° SSE 18:32:54 12° SE 18:32:58 12° SE
Cosmos 1821 Rocket 4.3 18:26:55 10° NNW 18:32:59 72° W 18:39:06 10° S
Cosmos 1605 Rocket 4.1 18:27:07 10° N 18:33:12 53° ENE 18:39:11 10° SSE
Unknown 3.7 18:29:56 10° WSW 18:34:05 73° NNW 18:37:16 17° ENE
Unknown 3.2 18:32:13 10° WNW 18:35:16 51° NNE 18:36:51 25° E
Cosmos 1356 3.6 18:32:10 10° S 18:35:28 48° E 18:38:48 10° NNE
Unknown 3.8 18:31:31 10° WSW 18:35:39 71° NNW 18:38:47 17° ENE
Unknown 3.8 18:31:55 10° WSW 18:36:03 67° NNW 18:39:11 17° ENE
Cosmos 2084 3.6 18:31:50 10° SW 18:36:22 86° NW 18:40:50 10° NE
Unknown 3.9 18:33:32 10° WSW 18:37:39 67° NNW 18:40:43 17° ENE
FALCON 9 DEB 4.1 18:34:53 10° WNW 18:38:09 36° N 18:39:59 21° ENE
COSMO-SKYMED 1 2.6 18:34:11 10° NNE 18:38:34 85° WNW 18:42:54 10° SSW
CSL-04 Rocket 3.7 18:35:04 10° SSE 18:40:37 90° WSW 18:46:10 10° NNW
Unknown 3.8 18:36:34 10° WSW 18:40:42 68° NNW 18:43:38 19° ENE
Cosmos 2263 Rocket 4.4 18:37:35 10° W 18:41:59 23° NW 18:46:25 10° N
Cosmos 1727 Rocket 4.5 18:36:39 10° SSE 18:42:09 35° E 18:47:41 10° NNE
Nadezhda 3 Rocket 4.5 18:36:32 10° SSW 18:42:46 66° WNW 18:49:05 10° N
Unknown 4.2 18:39:38 10° WNW 18:42:56 36° N 18:44:38 22° ENE
USA 116 3.0 18:40:29 10° NNE 18:43:36 67° ESE 18:46:51 10° S
Unknown 3.8 18:39:54 10° WSW 18:44:02 66° NNW 18:46:48 20° ENE
ASTEX 1 3.5 18:40:11 10° N 18:45:09 80° W 18:50:07 10° SSW
Unknown 3.9 18:41:39 10° WSW 18:45:46 65° NNW 18:48:29 20° ENE
Cosmos 1934 Rocket 4.1 18:39:34 10° N 18:45:55 87° W 18:52:18 10° S
NOAA 11 4.2 18:40:44 10° SSE 18:46:06 62° ENE 18:51:28 10° N
Unknown 4.0 18:43:38 10° WNW 18:46:51 38° N 18:48:13 26° ENE
Cosmos 1271 Rocket 4.2 18:43:22 10° NNW 18:47:08 42° W 18:50:54 10° SSW
Unknown 3.9 18:43:14 10° WSW 18:47:21 64° NNW 18:50:00 21° ENE
Unknown 3.9 18:44:58 10° WSW 18:49:05 63° NNW 18:51:40 22° ENE
CZ-2D R/B 3.2 18:45:40 10° SSE 18:49:28 65° ENE 18:53:19 10° N
Unknown 4.0 18:46:14 10° W 18:50:18 58° NNW 18:52:45 22° NE
SL-4 R/B 3.8 18:49:46 10° W 18:52:56 24° SW 18:55:54 10° SSE
Cosmos 1726 2.0 18:49:38 10° S 18:53:18 89° W 18:56:59 10° N
Cosmos 2058 4.3 18:52:01 10° NNE 18:54:46 22° NE 18:54:46 22° NE
Unknown 4.0 18:51:36 10° W 18:55:43 59° NNW 18:58:01 24° NE
Cosmos 1833 Rocket 2.8 18:50:51 10° NNW 18:56:22 53° NE 18:59:52 22° SE
BREEZE M DEB (TANK) 2.5 18:54:42 10° W 18:57:05 57° SSW 18:59:44 22° SE
Unknown 4.0 18:53:18 10° W 18:57:24 58° NNW 18:59:38 25° NE
ARGOS 4.2 18:57:06 24° ENE 18:58:03 25° ENE 19:02:25 10° N
Unknown 4.2 18:54:51 10° W 18:58:48 50° NNW 19:00:51 25° NE
Falcon 9 debris 3.9 18:55:46 10° WNW 18:59:04 40° NNE 18:59:57 33° NE
Unknown 4.0 18:54:58 10° W 18:59:04 58° NNW 19:01:14 26° NE
Unknown 4.0 18:56:34 10° W 19:00:39 57° NNW 19:02:44 27° NE
Unknown 4.1 18:58:18 10° W 19:02:23 56° NNW 19:04:24 27° NE
Unknown 3.1 18:59:50 10° WNW 19:02:25 47° SSW 19:02:50 42° S
Cosmos 1242 Rocket 3.5 18:58:52 10° NNW 19:02:27 50° W 19:06:01 10° S
Gbstr 26 Del rocket 4.1 18:58:13 10° WNW 19:04:19 77° NNE 19:08:27 28° E
Unknown 4.1 19:01:41 10° W 19:05:46 55° NNW 19:07:39 29° NE
Cosmos 1703 3.7 19:02:14 10° NNW 19:06:09 64° W 19:10:01 10° S
Unknown 3.9 19:02:58 10° WNW 19:06:19 41° NNE 19:06:59 36° NE
Starlink (trailer) 4.1 19:03:22 10° W 19:07:26 54° NNW 19:09:14 30° NE
Ariane Rocket 2.9 19:02:59 10° SSE 19:08:05 81° ENE 19:13:13 10° NNW
USA 238 DEB 4.2 19:02:50 10° S 19:08:45 35° ESE 19:11:09 27° ENE
USA 238 4.2 19:02:57 10° S 19:08:52 35° ESE 19:11:10 28° E
Unknown 4.1 19:05:02 10° W 19:09:05 53° NNW 19:10:49 31° NE
Unknown 4.2 19:06:39 10° W 19:10:42 53° NNW 19:12:22 31° NE
SJ-6B 4.1 19:14:19 25° NNE 19:14:19 25° NNE 19:16:26 10° N
Cosmos 2100 Rocket 4.2 19:07:41 10° N 19:13:38 45° ENE 19:16:25 28° SE
EO 1 Delta rocket 4.4 19:09:53 10° S 19:14:27 60° W 19:19:14 10° NNW
Cosmos 2082 Rocket 2.4 19:10:41 10° NNW 19:16:18 53° ENE 19:18:18 36° ESE
Unknown 4.2 19:13:14 10° W 19:17:16 50° NNW 19:18:38 35° NE
Unknown 4.2 19:13:23 10° W 19:17:26 50° NNW 19:18:48 35° NE
COSMOS 2406 3.8 19:12:08 10° NW 19:17:48 59° WSW 19:23:25 10° S
Unknown 4.2 19:14:07 10° W 19:18:09 50° NNW 19:19:29 35° NE
Unknown 4.2 19:15:10 10° WNW 19:18:41 37° N 19:19:16 35° NNE
SPOT 3 Rocket 3.9 19:19:13 40° E 19:20:08 43° ENE 19:25:02 10° N
Cosmos 292 Rocket 3.9 19:16:56 10° SSW 19:21:41 71° WNW 19:26:27 10° NNE
Unknown 4.3 19:18:08 10° W 19:22:10 49° NNW 19:23:19 37° NE
Unknown 4.3 19:18:24 10° W 19:22:26 49° NNW 19:23:35 37° NNE
Lacrosse 5 2.0 19:17:44 10° NW 19:22:44 57° NNE 19:23:56 45° ENE
Cosmos 1812 Rocket 3.5 19:19:07 10° S 19:23:27 60° E 19:27:52 10° NNE
Unknown 4.3 19:20:12 10° W 19:24:14 47° NNW 19:25:17 38° NNE
Cosmos 1153 Rocket 4.3 19:20:18 10° N 19:26:29 84° E 19:32:37 10° S
Unknown 4.3 19:23:14 10° WNW 19:26:51 38° N 19:27:16 36° NNE
Unknown 4.3 19:23:32 10° W 19:27:33 47° NNW 19:28:28 39° NNE
Cosmos 1777 Rocket 4.3 19:22:35 10° NNW 19:27:45 64° WSW 19:32:30 12° S
Unknown 4.3 19:24:00 10° W 19:28:01 47° NNW 19:28:55 40° NNE
Cosmos 1461 2.7 19:23:57 10° NW 19:28:02 70° NE 19:28:13 68° ENE
Unknown 4.3 19:25:07 10° W 19:29:08 47° NNW 19:29:59 40° NNE
HJ-1C 3.7 19:29:04 55° SSW 19:29:36 66° W 19:32:58 10° NNW
Unknown 4.3 19:26:06 10° WNW 19:29:46 39° N 19:30:11 37° NNE
BREEZE-M DEB (TANK) 4.3 19:26:27 10° WNW 19:31:14 69° SSW 19:39:09 24° SE
Cosmos 2084 Rocket 4.2 19:27:22 10° NNW 19:31:23 39° NNE 19:31:23 39° NNE
STPSAT 2 (USA 217) 4.5 19:27:05 10° NNW 19:31:40 73° ENE 19:32:16 63° ESE
Unknown 4.3 19:28:20 10° W 19:32:21 46° NNW 19:33:04 42° NNE
MOS 1 4.2 19:28:54 18° SSE 19:33:17 86° ENE 19:38:59 10° NNW
IRS-1A Rocket 4.4 19:28:41 10° S 19:34:11 73° WSW 19:39:43 10° NNW
NOSS 3-2 (A) 3.9 19:29:45 10° S 19:33:54 36° SE 19:33:54 36° SE
Unknown 4.3 19:31:47 10° W 19:35:47 45° N 19:36:21 42° NNE
Unknown 4.3 19:33:28 10° W 19:37:28 45° N 19:37:57 43° NNE
Cosmos 1939 Rocket 4.1 19:33:55 10° S 19:37:41 41° W 19:41:32 10° NNW
Cosmos 2016 Rocket 4.2 19:31:55 10° N 19:37:53 45° ENE 19:38:11 44° E
H-2A R/B 2.2 19:38:01 52° ENE 19:38:13 52° ENE 19:43:28 10° N
Cosmos 1076 Rocket 3.4 19:34:27 10° N 19:38:51 83° E 19:39:05 78° SE
Unknown 4.3 19:35:09 10° W 19:39:09 45° N 19:39:33 43° N
NOSS 3-3 (A) 4.4 19:32:11 10° NW 19:39:34 71° NE 19:42:40 41° ESE
NOSS 3-3 (C) 4.4 19:32:17 10° NW 19:39:40 71° NE 19:42:45 41° ESE
Cosmos 1844 Rocket 4.4 19:34:43 10° WSW 19:39:42 31° NW 19:44:41 10° NNE
Unknown 4.3 19:36:49 10° W 19:40:49 44° N 19:41:09 43° N
Lacrosse 5 rocket 4.1 19:39:31 10° W 19:41:09 12° SW 19:42:48 10° SSW
Unknown 4.4 19:40:10 10° W 19:44:09 44° N 19:44:19 43° N
In-Cosmos 22 Rocket 4.0 19:39:54 10° N 19:45:14 61° ENE 19:45:16 61° ENE
Unknown 4.4 19:41:53 10° W 19:45:52 43° N 19:45:59 43° N
Unknown 4.4 19:43:33 10° W 19:47:32 43° N 19:47:34 43° N
Unknown 4.4 19:45:09 10° W 19:49:05 43° N 19:49:05 43° N
Cosmos 2061 Rocket 4.0 19:43:04 10° N 19:49:14 56° ENE 19:49:35 56° E
Unknown 4.5 19:45:39 10° W 19:49:34 43° N 19:49:34 43° N
ATLAS CENTAUR R/B 4.0 19:50:21 10° N 19:52:07 12° NNE 19:52:13 12° NNE
Unknown 4.5 19:48:19 10° W 19:52:07 43° NNW 19:52:07 43° NNW
Cosmos 2278 Rocket 2.4 19:52:26 10° SW 19:58:06 71° WNW 20:03:48 10° NNE
CZ-2C R/B 3.6 20:02:00 51° NE 20:02:00 51° NE 20:06:52 10° N
ATLAS 5 CENTAUR R/B 4.0 20:05:56 10° WNW 20:09:23 20° NNW 20:11:49 15° NNE
Cosmos 1898 Rocket 4.0 20:04:24 10° NNW 20:08:28 50° N 20:08:28 50° N
Cosmos 1459 Rocket 4.1 20:11:38 10° NNW 20:17:48 71° W 20:19:38 47° SSW
Resurs 01 Rocket 3.7 20:22:59 20° N 20:22:59 20° N 20:24:23 10° N
ADEOS Rocket 3.4 20:17:15 10° NNE 20:25:05 89° ESE 20:32:25 10° SSW
SJ 16-02 3.5 20:23:03 10° NNW 20:24:27 20° N 20:24:27 20° N
Cosmos 1802 Rocket 4.3 20:27:23 10° NNW 20:33:46 66° W 20:34:40 59° SW
ARGOS 3.8 20:38:37 53° WNW 20:38:37 53° WNW 20:43:19 10° NNW
Cosmos 1833 Rocket 4.3 20:35:18 10° NW 20:40:01 28° WSW 20:41:37 24° SW
USA 238 DEB 4.0 20:52:41 10° SW 20:58:41 60° WNW 20:58:41 60° WNW
USA 238 4.1 20:52:47 10° SW 20:58:42 59° WNW 20:58:42 59° WNW
Cosmos 2082 Rocket 3.8 20:55:17 10° NW 21:00:06 29° WSW 21:00:11 29° WSW
Lacrosse 5 3.9 21:00:55 10° WNW 21:03:08 24° W 21:03:08 24° W
H-2A R/B 4.1 21:18:39 24° W 21:18:39 24° W 21:22:20 10° NW
